This is the latest recevied weather packets stored in our database for station/object F4JYN. If no packets are shown the sender has not sent any weather packets the latest 10 day(s).
| Time | Temp. | Humidity | Pressure | Rain* | Wind** | Luminosity | Snow |
|---|---|---|---|---|---|---|---|
| 1787622574 | 20.56° C | 45% | 977.9 hPa | - | - | - | - |
| 1787621974 | 20.56° C | 45% | 977.9 hPa | - | - | - | - |
| 1787621373 | 19.44° C | 45% | 977.9 hPa | - | - | - | - |
| 1787620774 | 20.56° C | 45% | 978.2 hPa | - | - | - | - |
| 1787620173 | 20° C | 45% | 978.2 hPa | - | - | - | - |
| 1787619572 | 20.56° C | 45% | 978.3 hPa | - | - | - | - |
| 1787618971 | 20° C | 45% | 978.4 hPa | - | - | - | - |
| 1787618372 | 20° C | 45% | 978.4 hPa | - | - | - | - |
| 1787617770 | 20.56° C | 45% | 978.5 hPa | - | - | - | - |
| 1787617170 | 20.56° C | 45% | 978.5 hPa | - | - | - | - |
| 1787616569 | 20.56° C | 45% | 978.8 hPa | - | - | - | - |
| 1787615969 | 20.56° C | 45% | 979 hPa | - | - | - | - |
| 1787615368 | 20.56° C | 45% | 979 hPa | - | - | - | - |
| 1787614768 | 20° C | 45% | 979 hPa | - | - | - | - |
| 1787614167 | 20.56° C | 45% | 979.2 hPa | - | - | - | - |
| 1787613567 | 20.56° C | 45% | 979.1 hPa | - | - | - | - |
| 1787612966 | 20.56° C | 45% | 979.2 hPa | - | - | - | - |
| 1787612365 | 20.56° C | 45% | 979.1 hPa | - | - | - | - |
| 1787611765 | 21.11° C | 45% | 979.2 hPa | - | - | - | - |
| 1787611164 | 21.67° C | 45% | 979.1 hPa | - | - | - | - |
| 1787610564 | 21.11° C | 45% | 979.1 hPa | - | - | - | - |
| 1787609963 | 21.67° C | 45% | 978.9 hPa | - | - | - | - |
| 1787605733 | 21.11° C | 45% | 978.9 hPa | - | - | - | - |
| 1787605133 | 21.67° C | 45% | 978.8 hPa | - | - | - | - |
| 1787604532 | 21.11° C | 45% | 978.8 hPa | - | - | - | - |
* Rain since midnight (hover to see other rain measurements)
** Current wind speed in m/s (hover to see current wind gust speed)